User: anonymous   Login
Location: *
(37.5724°S, 58.0067°E)
Time: 04:02:58
(UTC+00:00)
Language:

SeaSat 1 - Orbit

View from above orbital plane
View from above orbital plane
View from above satellite
View from above satellite

Ground track
Ground track

The orbit data is extracted from the following two-line orbital elements,

1 10967U 78064A   20337.48110647  .00000007  00000-0  42360-4 0  9990
2 10967 107.9999  62.1095 0001839 235.5754 124.5217 14.43847736228847
Epoch (UTC): 02 December 2020 11:32:47
Eccentricity: 0.0001839
inclination: 107.9999°
perigee height: 744 km
apogee height: 747 km
right ascension of ascending node: 62.1095°
argument of perigee: 235.5754°
revolutions per day: 14.43847736
mean anomaly at epoch: 124.5217°
orbit number at epoch: 22884

The dashed part of the orbit path shows where the satellite is in the earth's shadow,  

DLR